STARLINK-1361, 45567

Orbit data source: Space-Track

STARLINK-1361, 45567 is a payload satellite owned by SpaceX/Seattle (US) in LEO that was launched on Wed, 22 Apr 2020 UTC via an FALCON 9 launch vehicle from the Air Force Eastern Test Range (AFETR). Payload-class satellites include a variety of spacecraft equipped with specific instruments for various scientific and technological missions. These include communications satellites like Starlink; space stations such as the ISS; scientific satellites like the Hubble; Earth observation satellites from companies like Planet Labs, Umbra, and HawkEye 360; GPS; miniature CubeSats for education and research; and military/defense satellites.

Loading next visibility...
Identifier
45567, 2020-025AN
Orbit
LEO
Last TLE update
1 day ago
Origin
Manufacturer
SpaceX/Seattle
Mission
Operational Commercial Communications
Bus & Motor
STARLINK, Unknown motor
Mass
260 kg wet, ~248 kg dry
Launch date (UTC)
2020-04-22 (5 years ago)
Launch vehicle
FALCON 9
Launch site
Air Force Eastern Test Range (AFETR)
Object type
Payload
Rocket body
Debris
Shape & HBR
Box + 1 Pan, 8.86 m
Radar Cross Section
13.562 m², Large (>1 m²)

Expand to show TLE details & history

TLE from 1 day ago
0 STARLINK-1361
1 45567U 20025AN  25181.30841419 -.00000234  00000-0  31670-5 0  9995
2 45567  53.0544 139.6048 0001304  88.9487 271.1651 15.06394801287336
Epoch: 2025-06-30T07:24Z
TLE epoch observation values (Epoch: 2025-06-30T07:24:06.986Z)
Latitude
-0.00003°
Longitude
109.95559°
Altitude
548.088 km
Speed
7.589 km/s
True Right ascension
09h 18m 25s
True Declination
0° 00' 00"
Sunlit
Object was in daylight at epoch
Visualization orbit readout
Latitude
21.64673°
Longitude
122.13608°
Altitude
547.442 km
Speed
7.592 km/s
Apparent Right ascension
10h 10m 06s
Apparent Declination
-7° 41' 23"
Sunlit
Object is in daylight
Visualization observer readout
Local Sidereal Time
22:14:00
Azimuth
1.813° NNE
Elevation
-57.762°
Doppler factor
1
Orbital elements
Apogee altitude
548.401 km
Perigee altitude
546.595 km
Semi-major axis
6,925.635 km
Eccentricity
0.00013
Inclination
53.0544°
RAAN
139.6048°
Arg. of periapsis
88.9487°
True anomaly
Unknown
Mean anomaly
271.1651°
Eccentric anomaly
Unknown
Mean motion
3.76577 °/min
Orbital period
95.6 mins
BSTAR
0.000003167
Loading maneuver chart data...
Loading SW <> Apogee altitude chart data...
Loading historical data...
Loading historical data...
Loading historical data...
Loading historical data...
Loading historical data...
Loading historical data...
Loading historical data...

STARLINK-1361 Visibility forecast

Observer location: undefined°, undefined°

Span
Click to sort rows by Start time (UTC) header in descending order
Start Az.
Max El. time (UTC)
Max El. Az.
Max El.
End time (UTC)
End Az.
7 mins2025-07-01 23:22:32.343Z216.993° SW2025-07-01 23:26:32.343Z98.594° ESE40.504°2025-07-01 23:29:32.343Z56.831° ENE
5 mins2025-07-02 01:03:32.343Z288.97° WNW2025-07-02 01:05:32.343Z326.47° NNW22.76°2025-07-02 01:08:32.343Z24.509° NE
6 mins2025-07-02 06:05:32.343Z322.842° NNW2025-07-02 06:07:32.343Z30.948° NE41.995°2025-07-02 06:11:32.343Z119.417° SE
|